Meteo Giornale » Osservazioni meteo Repubblica Ceca » Praha-Ruzyne

ore: 04:30 - Osservazioni Meteo Praha-Ruzyne
Lat. 50° 6' N Lon. 14° 15' E Alt. 365 metri s.l.m.

sereno Europe/Prague

8 °C

Sereno

Temp. 24 Ore

7 °C

16 °C

Sud-Ovest

7.4 Km/h

Dew point 7 °C

Umidità 93 %

Visibilità  10 Km

Il sole sorge alle ore 07:02

Il sole tramonta alle ore 18:42

Data e Ora Cielo e Fenomeni T °C DP °C Um. % Pres. hPa Vis. km Vento km/h
Oggi h: 04:30 sereno Sereno 8 7 93 1010 10 SO 7.4
Oggi h: 04:00 sereno Sereno 9 7 87 1010 10 O/SO 7.4
Oggi h: 03:30 sereno Sereno 9 7 87 1010 10 O 9.3
Oggi h: 03:00 sereno Sereno 9 8 93 1011 10 O 7.4
Oggi h: 02:30 sereno Sereno 10 8 87 1011 10 N 3.7
Oggi h: 02:00 sereno Sereno 10 8 87 1012 10 N 3.7
Oggi h: 01:30 sereno Sereno 10 8 87 1012 10 O/NO 7.4
Oggi h: 01:00 sereno Sereno 10 8 87 1012 10 N 5.5
Oggi h: 00:30 sereno Sereno 11 9 87 1012 10 N 5.5
Oggi h: 00:00 nuvoloso Nuvoloso 12 9 81 1013 10 O 7.4
Ieri h: 23:30 molto_nuvoloso Molto Nuvoloso 12 9 81 1013 10 O 9.3
Ieri h: 23:00 molto_nuvoloso Molto Nuvoloso 12 9 81 1013 10 O/NO 7.4
Ieri h: 22:30 molto_nuvoloso Molto Nuvoloso 11 9 87 1014 10 N 5.5
Ieri h: 22:00 molto_nuvoloso Molto Nuvoloso 12 8 76 1014 10 N 3.7
Ieri h: 21:30 nuvoloso Nuvoloso 11 8 81 1014 10 N 3.7
Ieri h: 21:00 poco_nuvoloso Poco Nuvoloso 12 9 81 1014 10 N 5.5
Ieri h: 20:30 poco_nuvoloso Poco Nuvoloso 11 9 87 1014 10 N 3.7
Ieri h: 20:00 sereno Sereno 12 9 81 1014 10 N 3.7
Ieri h: 19:30 sereno Sereno 13 9 76 1014 10 N 3.7
Ieri h: 19:00 sereno Sereno 13 9 76 1014 10 N 3.7
Ieri h: 18:00 poco_nuvoloso Poco Nuvoloso 15 9 67 1014 10 N 7.4
Ieri h: 17:30 poco_nuvoloso Poco Nuvoloso 16 9 63 1014 10 N 9.3
Ieri h: 17:00 poco_nuvoloso Poco Nuvoloso 16 9 63 1014 10 N 9.3
Ieri h: 16:30 poco_nuvoloso Poco Nuvoloso 16 9 63 1014 10 N 13
Ieri h: 16:00 poco_nuvoloso Poco Nuvoloso 16 9 63 1014 10 N 13
Ieri h: 15:30 poco_nuvoloso Poco Nuvoloso 16 9 63 1015 10 N/NO 11.1
Ieri h: 15:00 poco_nuvoloso Poco Nuvoloso 16 10 67 1015 10 N 13
Ieri h: 14:30 poco_nuvoloso Poco Nuvoloso 16 9 63 1015 10 N/NO 14.8
Ieri h: 14:00 nuvoloso Nuvoloso 16 9 63 1015 10 NO 13
Ieri h: 13:30 nuvoloso Nuvoloso 16 9 63 1016 10 N/NO 14.8
Ieri h: 13:00 nuvoloso Nuvoloso 15 9 67 1016 10 N/NO 16.7
Ieri h: 12:30 poco_nuvoloso Poco Nuvoloso 15 8 62 1016 10 NO 13
Ieri h: 12:00 poco_nuvoloso Poco Nuvoloso 15 10 72 1016 10 NO 11.1
Ieri h: 11:30 sereno Sereno 14 11 82 1017 10 O 11.1
Ieri h: 11:00 sereno Sereno 13 10 81 1017 10 O/SO 11.1
Ieri h: 10:30 sereno Sereno 12 9 81 1017 10 O/SO 9.3
Ieri h: 10:00 sereno Sereno 11 9 87 1017 10 O/SO 7.4
Ieri h: 09:30 sereno Sereno 9 8 93 1017 10 O/SO 7.4
Ieri h: 09:00 sereno Sereno 9 8 93 1017 10 O/SO 9.3
Ieri h: 08:30 sereno Sereno 8 7 93 1017 10 SO 11.1
Ieri h: 08:00 sereno Sereno 8 7 93 1017 10 SO 11.1
Ieri h: 07:30 sereno Sereno 7 7 100 1017 10 SO 11.1
Ieri h: 07:00 sereno Sereno 7 6 93 1016 10 SO 11.1
Ieri h: 06:30 sereno Sereno 8 7 93 1016 10 SO 13
Ieri h: 06:00 sereno Sereno 8 7 93 1016 10 SO 13
Ieri h: 05:30 sereno Sereno 8 7 93 1017 10 SO 11.1
Ieri h: 05:00 sereno Sereno 8 6 87 1017 10 SO 11.1